Date,TemperatureHighF,TemperatureAvgF,TemperatureLowF,DewpointHighF,DewpointAvgF,DewpointLowF,HumidityHigh,HumidityAvg,HumidityLow,PressureMaxIn,PressureMinIn,WindSpeedMaxMPH,WindSpeedAvgMPH,GustSpeedMaxMPH,PrecipitationSumIn
2014-1-1,70,59,50,37,33,28,53,38,25,0.00,40.00,0,-999,0,0.00
2014-1-2,71,64,55,42,39,37,57,41,29,0.00,40.00,0,-999,0,0.00
2014-1-3,70,65,57,41,38,35,55,38,31,0.00,40.00,0,-999,0,0.00
2014-1-4,73,68,62,37,35,34,40,30,24,0.00,40.00,0,-999,0,0.00
2014-1-5,74,58,49,38,34,25,60,45,16,0.00,40.00,0,-999,0,0.00
2014-1-6,72,65,54,36,34,29,41,32,25,0.00,40.00,0,-999,0,0.00
2014-1-7,67,64,59,34,28,20,36,26,19,0.00,40.00,0,-999,0,0.00
2014-1-10,68,65,57,46,44,40,54,48,44,0.00,40.00,0,-999,0,0.00
2014-1-11,70,60,50,44,42,40,75,53,34,0.00,40.00,0,-999,0,0.00
2014-1-12,60,56,53,50,47,44,79,72,58,0.00,40.00,0,-999,0,0.00
2014-1-13,65,59,53,45,44,43,71,58,47,0.00,40.00,0,-999,0,0.00
2014-1-14,69,64,53,45,43,41,65,47,38,0.00,40.00,0,-999,0,0.00
2014-1-15,74,71,67,45,42,41,45,36,31,0.00,40.00,0,-999,0,0.00
2014-1-16,76,74,70,41,39,38,34,28,25,0.00,40.00,0,-999,0,0.00
2014-1-17,80,63,51,39,33,26,48,36,16,0.00,40.00,0,-999,0,0.00
2014-1-18,77,64,54,32,27,23,34,26,17,0.00,40.00,0,-999,0,0.00
2014-1-19,79,63,51,38,32,26,45,33,15,0.00,40.00,0,-999,0,0.00
2014-1-20,78,65,51,35,29,25,42,28,15,0.00,40.00,0,-999,0,0.00
2014-1-21,65,57,53,42,37,33,60,47,38,0.00,40.00,0,-999,0,0.00
2014-1-22,74,61,53,39,32,29,56,36,19,0.00,40.00,0,-999,0,0.00
2014-1-23,79,76,72,14,13,11,10,9,8,0.00,40.00,0,-999,0,0.00
2014-1-24,80,75,68,20,16,12,15,11,9,0.00,40.00,0,-999,0,0.00
2014-1-29,74,70,62,39,36,33,37,29,25,0.00,40.00,0,-999,0,0.00
2014-1-30,64,63,60,55,49,36,80,64,35,0.00,40.00,0,-999,0,0.00
2014-1-31,61,58,52,53,49,46,88,73,59,0.00,40.00,0,-999,0,0.32
2014-2-1,63,60,53,40,35,31,62,41,29,0.00,40.00,0,-999,0,0.00
2014-2-2,63,60,56,33,29,24,39,30,23,0.00,40.00,0,-999,0,0.00
2014-2-3,57,54,50,47,43,38,76,67,56,0.00,40.00,0,-999,0,0.00
2014-2-4,60,58,52,45,41,38,79,56,44,0.00,40.00,0,-999,0,0.00
2014-2-5,63,56,49,43,41,38,78,60,39,0.00,40.00,0,-999,0,0.00
2014-2-6,60,58,55,51,45,40,81,62,51,0.00,40.00,0,-999,0,0.02
2014-2-7,67,62,58,53,49,45,77,62,45,0.00,40.00,0,-999,0,0.02
2014-2-8,71,64,56,54,51,49,80,64,47,0.00,40.00,0,-999,0,0.00
2014-2-9,71,65,61,56,54,52,78,67,51,0.00,40.00,0,-999,0,0.00
2014-2-10,72,67,62,58,55,52,81,67,48,0.00,40.00,0,-999,0,0.02
2014-2-11,69,64,59,58,54,52,90,73,55,0.00,40.00,0,-999,0,0.02
2014-2-12,75,66,55,54,51,48,80,60,43,0.00,40.00,0,-999,0,0.00
2014-2-13,78,71,59,52,50,48,78,49,34,0.00,40.00,0,-999,0,0.00
2014-2-14,82,75,63,43,40,36,42,29,20,0.00,40.00,0,-999,0,0.00
2014-2-15,83,75,63,48,35,20,45,26,13,0.00,40.00,0,-999,0,0.00
2014-2-16,74,68,59,55,46,19,78,48,16,0.00,40.00,0,-999,0,0.00
2014-2-17,72,66,55,48,46,43,77,52,39,0.00,40.00,0,-999,0,0.00
2014-2-18,69,64,59,49,45,43,71,52,41,0.00,40.00,0,-999,0,0.00
2014-2-19,70,62,56,48,46,40,74,58,34,0.00,40.00,0,-999,0,0.00
2014-2-20,68,63,57,49,40,36,75,46,32,0.00,40.00,0,-999,0,0.00
2014-2-21,76,70,63,41,39,37,43,32,26,0.00,40.00,0,-999,0,0.00
2014-2-22,76,72,67,42,40,38,40,32,27,0.00,40.00,0,-999,0,0.00
2014-2-23,79,75,67,41,39,36,35,27,22,0.00,40.00,0,-999,0,0.00
2014-2-24,80,75,68,43,40,38,35,29,24,0.00,40.00,0,-999,0,0.00
2014-2-25,84,79,71,39,34,30,32,20,15,0.00,40.00,0,-999,0,0.00
2014-2-26,73,66,60,55,48,41,72,53,36,0.00,40.00,0,-999,0,0.01
2014-2-27,75,69,63,56,43,30,79,42,20,0.00,40.00,0,-999,0,0.04
2014-2-28,74,66,59,57,48,18,93,57,13,0.00,40.00,0,-999,0,0.48
2014-3-1,69,65,60,49,44,39,65,49,37,0.00,40.00,0,-999,0,0.04
2014-3-2,69,65,57,52,48,44,76,56,43,0.00,40.00,0,-999,0,0.00
2014-3-3,72,64,56,55,52,47,87,65,46,0.00,40.00,0,-999,0,0.00
2014-3-4,69,64,59,55,53,51,84,69,53,0.00,40.00,0,-999,0,0.00
2014-3-5,79,72,67,56,52,50,64,51,37,0.00,40.00,0,-999,0,0.00
2014-3-6,77,71,65,57,54,45,62,55,44,0.00,40.00,0,-999,0,0.00
2014-3-7,71,63,55,51,49,45,82,61,39,0.00,40.00,0,-999,0,0.00
2014-3-8,79,68,54,48,43,34,79,45,20,0.00,40.00,0,-999,0,0.00
2014-3-9,88,76,63,46,33,14,44,24,7,0.00,40.00,0,-999,0,0.00
2014-3-10,77,73,66,54,43,34,64,36,28,0.00,40.00,0,-999,0,0.00
2014-3-11,73,66,59,54,45,40,73,50,31,0.00,40.00,0,-999,0,0.00
2014-3-12,78,70,57,45,24,15,64,21,10,0.00,40.00,0,-999,0,0.00
2014-3-13,79,69,58,34,27,19,32,22,11,0.00,40.00,0,-999,0,0.00
2014-3-14,84,76,65,34,29,24,28,18,12,0.00,40.00,0,-999,0,0.00
2014-3-15,85,80,74,43,37,32,33,22,17,0.00,40.00,0,-999,0,0.00
2014-3-16,88,82,69,45,42,40,34,25,19,0.00,40.00,0,-999,0,0.00
2014-3-17,79,71,61,46,37,32,58,31,18,0.00,40.00,0,-999,0,0.00
2014-3-18,77,70,62,47,37,32,58,32,19,0.00,40.00,0,-999,0,0.00
2014-3-19,85,80,76,30,25,19,18,13,9,0.00,40.00,0,-999,0,0.00
2014-3-20,83,76,67,35,32,30,26,20,15,0.00,40.00,0,-999,0,0.00
2014-3-21,84,77,66,39,35,32,28,22,17,0.00,40.00,0,-999,0,0.00
2014-3-22,80,69,57,44,38,32,54,34,20,0.00,40.00,0,-999,0,0.00
2014-3-23,82,76,68,40,37,33,32,25,17,0.00,40.00,0,-999,0,0.00
2014-3-24,86,80,72,41,37,34,30,22,16,0.00,40.00,0,-999,0,0.00
2014-3-25,83,75,67,42,35,29,30,24,16,0.00,40.00,0,-999,0,0.00
2014-3-26,65,62,60,56,52,49,86,68,55,0.00,40.00,0,-999,0,0.01
2014-3-27,70,63,57,53,47,38,85,59,32,0.00,40.00,0,-999,0,0.02
2014-3-28,76,70,59,45,42,40,57,38,28,0.00,40.00,0,-999,0,0.01
2014-3-29,83,76,64,49,39,36,50,29,20,0.00,40.00,0,-999,0,0.00
2014-3-30,68,62,56,54,48,41,91,64,38,0.00,40.00,0,-999,0,0.31
2014-3-31,72,65,56,51,42,30,76,46,21,0.00,40.00,0,-999,0,0.15
2014-4-1,68,61,55,50,43,34,82,54,30,0.00,40.00,0,-999,0,0.01
2014-4-2,65,58,54,50,45,38,82,63,36,0.00,40.00,0,-999,0,0.40
2014-4-3,74,67,58,50,44,41,62,45,31,0.00,40.00,0,-999,0,0.01
2014-4-4,72,65,56,49,45,37,77,51,29,0.00,40.00,0,-999,0,0.00
2014-4-5,67,60,55,50,49,46,78,66,48,0.00,40.00,0,-999,0,0.00
2014-4-6,79,71,59,48,44,42,64,40,28,0.00,40.00,0,-999,0,0.00
2014-4-7,90,79,61,47,43,37,60,31,16,0.00,40.00,0,-999,0,0.00
2014-4-8,94,87,79,44,38,29,27,19,10,0.00,40.00,0,-999,0,0.00
2014-4-9,93,85,75,40,38,33,27,19,12,0.00,40.00,0,-999,0,0.00
2014-4-10,90,81,68,46,42,36,37,27,15,0.00,40.00,0,-999,0,0.00
2014-4-11,93,83,72,45,35,19,35,20,10,0.00,40.00,0,-999,0,0.00
2014-4-12,85,76,64,42,39,26,39,26,19,0.00,40.00,0,-999,0,0.00
2014-4-13,82,71,61,51,48,44,64,45,31,0.00,40.00,0,-999,0,0.00
2014-4-14,92,85,72,46,33,14,39,17,6,0.00,40.00,0,-999,0,0.00
2014-4-15,90,80,70,44,38,29,37,23,13,0.00,40.00,0,-999,0,0.00
2014-4-16,86,76,64,40,38,33,41,26,15,0.00,40.00,0,-999,0,0.00
2014-4-17,88,82,74,46,44,41,33,26,19,0.00,40.00,0,-999,0,0.00
2014-4-18,85,78,70,51,46,43,52,35,24,0.00,40.00,0,-999,0,0.00
2014-4-19,88,78,67,51,47,42,57,36,22,0.00,40.00,0,-999,0,0.00
2014-4-20,85,74,62,45,42,32,51,32,20,0.00,40.00,0,-999,0,0.00
2014-4-21,90,82,69,42,38,32,35,22,13,0.00,40.00,0,-999,0,0.00
2014-4-22,77,71,62,45,36,24,44,30,15,0.00,40.00,0,-999,0,0.00
2014-4-23,77,69,59,40,37,34,50,32,23,0.00,40.00,0,-999,0,0.00
2014-4-24,81,74,61,44,40,37,43,30,22,0.00,40.00,0,-999,0,0.00
2014-4-25,77,68,56,55,49,42,85,54,31,0.00,40.00,0,-999,0,0.00
2014-4-26,64,59,54,52,49,45,85,68,54,0.00,40.00,0,-999,0,0.00
2014-4-27,73,63,54,51,45,38,85,56,28,0.00,40.00,0,-999,0,0.00
2014-4-28,79,69,57,49,46,42,74,46,27,0.00,40.00,0,-999,0,0.00
2014-4-29,88,81,65,51,42,36,59,27,16,0.00,40.00,0,-999,0,0.00
2014-4-30,95,87,74,41,29,18,29,13,7,0.00,40.00,0,-999,0,0.00
2014-5-1,97,90,79,42,29,22,25,12,8,0.00,40.00,0,-999,0,0.00
2014-5-2,96,87,76,45,34,24,33,17,8,0.00,40.00,0,-999,0,0.00
2014-5-3,92,84,68,42,37,29,39,20,11,0.00,40.00,0,-999,0,0.00
2014-5-4,84,75,65,50,46,39,53,36,25,0.00,40.00,0,-999,0,0.00
2014-5-5,81,72,63,52,48,37,66,43,27,0.00,40.00,0,-999,0,0.00
2014-5-6,69,65,57,52,45,42,84,50,40,0.00,40.00,0,-999,0,0.00
2014-5-13,97,91,85,30,28,23,13,11,7,0.00,40.00,0,-999,0,0.00
2014-5-14,100,91,77,31,25,19,14,9,6,0.00,40.00,0,-999,0,0.00
2014-5-15,102,95,84,36,33,30,15,12,9,0.00,40.00,0,-999,0,0.00
2014-5-16,100,92,77,39,32,27,26,12,9,0.00,40.00,0,-999,0,0.00
2014-5-17,95,84,71,43,36,27,34,20,9,0.00,40.00,0,-999,0,0.00
2014-5-18,86,76,65,46,41,32,42,29,20,0.00,40.00,0,-999,0,0.00
2014-5-19,85,76,65,48,38,26,50,27,12,0.00,40.00,0,-999,0,0.00
2014-5-20,76,69,63,51,43,37,60,41,25,0.00,40.00,0,-999,0,0.00
2014-5-21,81,72,63,47,44,41,51,37,27,0.00,40.00,0,-999,0,0.00
2014-5-22,85,74,68,47,45,41,46,37,24,0.00,40.00,0,-999,0,0.00
2014-5-23,90,79,68,47,45,42,46,31,19,0.00,40.00,0,-999,0,0.00
2014-5-24,95,85,76,49,45,40,37,26,15,0.00,40.00,0,-999,0,0.00
2014-5-25,99,87,77,52,49,44,41,28,15,0.00,40.00,0,-999,0,0.00
2014-5-26,99,88,75,53,45,36,45,25,13,0.00,40.00,0,-999,0,0.00
2014-5-27,97,86,73,47,36,28,39,19,10,0.00,40.00,0,-999,0,0.00
2014-5-28,88,79,68,42,35,26,38,22,12,0.00,40.00,0,-999,0,0.00
2014-5-29,89,77,65,37,30,22,35,19,11,0.00,40.00,0,-999,0,0.00
2014-5-30,96,83,72,30,27,22,19,13,7,0.00,40.00,0,-999,0,0.00
2014-5-31,93,82,70,38,31,23,32,17,8,0.00,40.00,0,-999,0,0.00
2014-6-1,97,83,68,34,31,27,25,16,10,0.00,40.00,0,-999,0,0.00
2014-6-2,98,86,75,33,28,4,21,13,5,0.00,40.00,0,-999,0,0.00
2014-6-3,94,81,68,42,31,19,23,17,11,0.00,40.00,0,-999,0,0.00
2014-6-4,95,84,74,46,38,34,29,21,12,0.00,40.00,0,-999,0,0.00
2014-6-5,100,89,77,41,37,32,23,17,12,0.00,40.00,0,-999,0,0.00
2014-6-6,101,88,72,41,35,31,32,17,9,0.00,40.00,0,-999,0,0.00
2014-6-7,100,88,73,46,40,35,28,19,12,0.00,40.00,0,-999,0,0.00
2014-6-8,104,93,81,51,46,43,27,20,13,0.00,40.00,0,-999,0,0.00
2014-6-9,111,98,88,49,42,29,27,16,6,0.00,40.00,0,-999,0,0.00
2014-6-10,103,93,80,41,35,25,22,14,9,0.00,40.00,0,-999,0,0.00
2014-6-11,98,89,81,45,39,33,25,18,13,0.00,40.00,0,-999,0,0.00
2014-6-12,98,86,74,53,50,44,43,30,19,0.00,40.00,0,-999,0,0.00
2014-6-13,92,82,70,49,39,25,47,24,12,0.00,40.00,0,-999,0,0.00
2014-6-14,95,82,67,39,32,25,34,19,9,0.00,40.00,0,-999,0,0.00
2014-6-15,96,84,74,42,33,25,27,17,9,0.00,40.00,0,-999,0,0.00
2014-6-16,91,79,66,44,38,24,45,26,9,0.00,40.00,0,-999,0,0.00
2014-6-17,88,78,65,44,34,22,43,23,10,0.00,40.00,0,-999,0,0.00
2014-6-18,94,80,69,39,35,31,30,20,12,0.00,40.00,0,-999,0,0.00
2014-6-19,99,86,75,39,35,32,22,16,10,0.00,40.00,0,-999,0,0.00
2014-6-20,101,88,74,40,34,28,28,16,8,0.00,40.00,0,-999,0,0.00
2014-6-21,101,88,72,43,36,26,32,17,8,0.00,40.00,0,-999,0,0.00
2014-6-22,98,86,70,44,34,24,38,18,8,0.00,40.00,0,-999,0,0.00
2014-6-23,98,83,70,47,37,26,31,20,12,0.00,40.00,0,-999,0,0.00
2014-6-24,99,85,76,45,40,31,28,22,11,0.00,40.00,0,-999,0,0.00
2014-6-25,98,86,73,52,46,41,46,27,14,0.00,40.00,0,-999,0,0.00
2014-6-26,90,82,72,58,52,49,59,37,25,0.00,40.00,0,-999,0,0.00
2014-6-27,92,83,70,55,48,35,57,33,15,0.00,40.00,0,-999,0,0.00
2014-6-28,96,83,72,59,50,43,49,33,20,0.00,40.00,0,-999,0,0.00
2014-6-29,101,88,73,53,46,39,49,26,12,0.00,40.00,0,-999,0,0.00
2014-6-30,107,93,82,47,41,37,21,17,11,0.00,40.00,0,-999,0,0.00
2014-7-1,108,95,84,49,44,35,29,18,12,0.00,40.00,0,-999,0,0.00
2014-7-2,106,93,78,48,45,38,35,20,13,0.00,40.00,0,-999,0,0.00
2014-7-3,105,92,81,53,47,42,30,23,12,0.00,40.00,0,-999,0,0.00
2014-7-4,109,95,84,51,44,31,26,18,10,0.00,40.00,0,-999,0,0.00
2014-7-5,106,93,78,44,39,33,25,16,9,0.00,40.00,0,-999,0,0.00
2014-7-6,103,92,80,49,38,29,32,17,8,0.00,40.00,0,-999,0,0.00
2014-7-7,106,94,85,42,33,28,19,12,7,0.00,40.00,0,-999,0,0.00
2014-7-8,108,96,83,39,30,24,18,10,6,0.00,40.00,0,-999,0,0.00
2014-7-9,107,93,78,46,38,30,25,15,10,0.00,40.00,0,-999,0,0.00
2014-7-10,103,91,78,47,40,32,29,18,11,0.00,40.00,0,0,0,0.00
2014-7-11,98,87,75,51,44,35,28,22,16,0.00,40.00,0,0,0,0.00
2014-7-12,97,87,76,56,53,49,43,32,22,0.00,40.00,0,0,0,0.00
2014-7-13,102,91,79,54,51,44,42,27,15,0.00,40.00,0,0,0,0.00
2014-7-14,106,95,87,57,53,49,31,25,15,0.00,40.00,0,0,0,0.00
2014-7-15,106,95,84,56,54,50,36,26,17,0.00,40.00,0,0,0,0.00
2014-7-16,101,89,79,57,55,53,46,32,21,0.00,40.00,0,0,0,0.00
2014-7-17,95,85,75,59,56,52,59,39,24,0.00,40.00,0,0,0,0.00
2014-7-18,95,85,74,56,54,52,54,37,25,0.00,40.00,0,0,0,0.00
2014-7-19,92,86,77,63,58,54,57,39,30,0.00,40.00,0,0,0,0.00
2014-7-20,98,88,81,62,58,54,51,38,25,0.00,40.00,0,0,0,0.00
2014-7-21,98,88,75,59,57,54,58,36,25,0.00,40.00,0,0,0,0.00
2014-7-22,102,89,80,59,53,40,46,32,17,0.00,40.00,0,0,0,0.00
2014-7-23,92,85,74,61,53,41,50,35,20,0.00,40.00,0,0,0,0.00
2014-7-24,98,86,75,61,55,50,61,37,20,0.00,40.00,0,0,0,0.00
2014-7-25,105,93,81,51,48,44,31,23,13,0.00,40.00,0,0,0,0.00
2014-7-26,107,94,84,51,44,32,32,20,9,0.00,40.00,0,0,0,0.00
2014-7-27,107,93,84,45,39,33,22,16,10,0.00,40.00,0,0,0,0.00
2014-7-28,97,91,86,57,46,40,29,21,14,0.00,40.00,0,0,0,0.00
2014-7-29,105,92,83,48,44,40,25,19,13,0.00,40.00,0,0,0,0.00
2014-7-30,104,94,83,54,49,45,36,23,14,0.00,40.00,0,0,0,0.00
2014-7-31,108,96,88,54,47,43,27,21,12,0.00,40.00,0,0,0,0.00
2014-8-1,110,96,84,49,45,41,30,19,10,0.00,40.00,0,0,0,0.00
2014-8-2,103,95,83,49,41,33,30,17,9,0.00,40.00,0,0,0,0.00
2014-8-3,93,87,83,61,54,36,48,34,14,0.00,40.00,0,0,0,0.00
2014-8-4,100,91,81,61,45,28,49,26,8,0.00,40.00,0,0,0,0.00
2014-8-5,99,87,75,59,54,48,52,35,18,0.00,40.00,0,0,0,0.00
2014-8-6,96,86,76,60,56,51,58,38,23,0.00,40.00,0,0,0,0.00
2014-8-7,100,91,76,59,56,53,54,32,22,0.00,40.00,0,0,0,0.00
2014-8-8,104,93,83,58,54,48,42,28,16,0.00,40.00,0,0,0,0.00
2014-8-9,106,94,82,52,47,40,34,22,13,0.00,40.00,0,0,0,0.00
2014-8-10,103,90,76,49,45,38,39,23,14,0.00,40.00,0,0,0,0.00
2014-8-11,101,90,80,54,49,47,38,26,17,0.00,40.00,0,0,0,0.00
2014-8-12,104,91,81,55,49,42,32,25,15,0.00,40.00,0,0,0,0.00
2014-8-13,102,88,77,59,55,45,54,35,15,0.00,40.00,0,0,0,0.00
2014-8-14,99,87,75,57,52,47,53,33,18,0.00,40.00,0,0,0,0.00
2014-8-15,104,90,75,53,44,31,46,22,8,0.00,40.00,0,0,0,0.00
2014-8-16,104,90,74,42,36,29,27,16,9,0.00,40.00,0,0,0,0.00
2014-8-17,104,93,81,45,40,30,21,16,11,0.00,40.00,0,0,0,0.00
2014-8-18,104,90,77,48,40,31,34,19,9,0.00,40.00,0,0,0,0.00
2014-8-19,96,87,77,44,39,30,28,19,14,0.00,40.00,0,0,0,0.00
2014-8-20,96,85,72,51,44,30,33,25,15,0.00,40.00,0,0,0,0.00
2014-8-21,99,87,73,53,51,49,49,30,19,0.00,40.00,0,0,0,0.00
2014-8-22,99,88,77,54,50,40,43,29,13,0.00,40.00,0,0,0,0.00
2014-8-23,98,89,74,48,46,41,39,24,15,0.00,40.00,0,0,0,0.00
2014-8-24,99,87,74,48,45,37,40,25,12,0.00,40.00,0,0,0,0.00
2014-8-25,97,84,71,50,44,36,44,26,12,0.00,40.00,0,0,0,0.00
2014-8-26,96,83,69,51,46,39,49,29,14,0.00,40.00,0,0,0,0.00
2014-8-27,101,91,78,46,42,36,29,19,11,0.00,40.00,0,0,0,0.00
2014-8-28,105,95,83,45,37,33,27,14,10,0.00,40.00,0,0,0,0.00
2014-8-29,101,92,81,47,43,38,25,18,14,0.00,40.00,0,0,0,0.00
2014-8-30,100,90,77,50,43,35,36,22,11,0.00,40.00,0,0,0,0.00